WESTFORD NEEDLES, 702

Orbit data source: Space-Track

WESTFORD NEEDLES, 702 is space debris in LEO originally from a launch on Thu, 09 May 1963 UTC launched from the Air Force Western Test Range (AFWTR). Debris objects in space refer to the collection of defunct objects orbiting the Earth. Examples of debris include non-operational satellites, rocket bodies, and fragments generated from explosions, collisions, or faulty payload assembly.

Loading next visibility...
Identifier
702, 1963-014H
Orbit
LEO
Country
Flag of USUS
Related business
Manufacturer
Unknown
Mission
Spacecraft
Bus & Motor
Unknown
Mass
Unknown
Launch date (UTC)
1963-05-09 (63 years ago)
Launch vehicle
Unknown
Launch site
Air Force Western Test Range (AFWTR)
Object type
Payload
Rocket body
Debris
Shape & HBR
Unknown shape, 0.9 m
Radar Cross Section
Medium (>0.1 m² and <1 m²)

Expand to show TLE details & history
Last TLE update: 12 hours ago

TLE from 12 hours ago
0 WESTFORD NEEDLES
1   702U 63014H   26124.14421103 -.00000018  00000-0 -99003-2 0  9998
2   702  87.3644 194.0103 0096692  97.2653 263.9204  8.65652159990466
Epoch: 2026-05-04T03:27Z
TLE epoch observation values (Epoch: 2026-05-04T03:27:39.832Z)
Latitude
-0.00003°
Longitude
-79.9433°
Altitude
3,654.588 km
Speed
6.3 km/s
True Right ascension
12h 56m 02s
True Declination
0° 00' 00"
Sunlit
Object was in full shadow at epoch
Visualization orbit readout
Latitude
Unknown
Longitude
Unknown
Altitude
Unknown
Speed
Unknown
Apparent Right ascension
Unknown
Apparent Declination
Unknown
Sunlit
N/A
Visualization observer readout
Local Sidereal Time
22:52:57
Azimuth
Unknown
Elevation
Unknown
Doppler factor
Unknown
Orbital elements
Apogee altitude
3,735.894 km
Perigee altitude
3,542.178 km
Semi-major axis
10,017.173 km
Eccentricity
0.00967
Inclination
87.3644°
RAAN
194.0103°
Arg. of periapsis
97.2653°
True anomaly
262.8201°
Mean anomaly
263.9204°
Eccentric anomaly
263.3701°
Mean motion
2.16484 °/min
Orbital period
166.29 mins
BSTAR
-0.0099003
Loading maneuver chart data...
Computing Atmospheric mass density...
Loading historical data...
Loading historical data...
Loading historical data...
Loading historical data...
Loading historical data...
Loading historical data...
Loading historical data...

Documentation

Showing up to 5 results
|